Weather History for Valley City, ND

Change the Weather History Date:

Thursday, May 16, 2013

  Actual Average (KJMS) Record (KJMS)
Temperature  
Mean Temperature 60 °F 55 °F  
Max Temperature 68 °F 68 °F 94 °F (1987)
Min Temperature 53 °F 43 °F 21 °F (1983)
Degree Days  
Heating Degree Days 4 10  
Month to date heating degree days 205  
Since 1 July heating degree days 8799  
Cooling Degree Days 0 1  
Month to date cooling degree days 5  
Year to date cooling degree days 7  
Growing Degree Days 10 (Base 50)    
Moisture  
Dew Point 48 °F    
Average Humidity 71    
Maximum Humidity 100    
Minimum Humidity 37    
Precipitation  
Precipitation 0.03 in 0.09 in 0.74 in (1992)
Month to date precipitation 1.27  
Year to date precipitation 4.16  
Sea Level Pressure  
Sea Level Pressure 29.91 in    
Wind  
Wind Speed 9 mph (ENE)    
Max Wind Speed 23 mph    
Max Gust Speed 30 mph    
Visibility 10 miles    
Events Rain    
T = Trace of Precipitation, MM = Missing Value Source: NWS Daily Summary

Daily Weather History Graph

Daily Weather History Graph

Search for Another Location

Airport:

Trip Planner

Search our weather history database for the weather conditions in past years. The results will help you decide how hot, cold, wet, or windy it might be!

Date:

Astronomy

May. 16, 2013 Rise Set
Actual Time 5:55 AM CDT 9:02 PM CDT
Civil Twilight 5:19 AM CDT 9:38 PM CDT
Nautical Twilight 4:32 AM CDT 10:25 PM CDT
Astronomical Twilight 3:35 AM CDT 11:23 PM CDT
Moon 11:37 AM CDT (5/16) 1:17 AM CDT (5/16)
Length of Visible Light 16h 19m
Length of Day
15h 06m
Waxing Crescent, 36% of the Moon is Illuminated
May 16
Waxing Crescent
May 17
First Quarter
May 24
Full
May 31
Last Quarter
Jun 8
New

Hourly Weather History & Observations

Time (CDT) Temp. Dew Point Humidity Pressure Visibility Wind Dir Wind Speed Gust Speed Precip Events Conditions
7:55 AM 55.4 °F 41.0 °F 58% 29.91 in 10.0 mi SE 3.5 mph - N/A   Partly Cloudy
8:15 AM 59.0 °F 41.0 °F 51% 29.92 in 10.0 mi East 5.8 mph - N/A   Clear
8:35 AM 59.0 °F 41.0 °F 51% 29.92 in 10.0 mi ESE 4.6 mph - N/A   Mostly Cloudy
8:55 AM 60.8 °F 41.0 °F 48% 29.92 in 10.0 mi ESE 5.8 mph - N/A   Scattered Clouds
9:15 AM 62.6 °F 41.0 °F 45% 29.91 in 10.0 mi ESE 9.2 mph - N/A   Clear
9:35 AM 64.4 °F 41.0 °F 42% 29.91 in 10.0 mi ESE 8.1 mph - N/A   Mostly Cloudy
9:55 AM 66.2 °F 41.0 °F 40% 29.91 in 10.0 mi ESE 11.5 mph - N/A   Mostly Cloudy
10:15 AM 66.2 °F 39.2 °F 37% 29.91 in 10.0 mi ESE 9.2 mph - N/A   Mostly Cloudy
10:35 AM 66.2 °F 41.0 °F 40% 29.90 in 10.0 mi ESE 10.4 mph - N/A   Scattered Clouds
10:55 AM 68.0 °F 41.0 °F 37% 29.90 in 10.0 mi ESE 11.5 mph - N/A   Mostly Cloudy
11:15 AM 68.0 °F 41.0 °F 37% 29.90 in 10.0 mi ESE 9.2 mph - N/A   Overcast
11:35 AM 66.2 °F 41.0 °F 40% 29.91 in 10.0 mi SSE 6.9 mph - N/A   Overcast
11:55 AM 66.2 °F 41.0 °F 40% 29.92 in 10.0 mi SE 6.9 mph - N/A   Overcast
12:15 PM 68.0 °F 41.0 °F 37% 29.93 in 10.0 mi Calm Calm - N/A   Overcast
12:35 PM 66.2 °F 44.6 °F 46% 29.94 in 10.0 mi Calm Calm - N/A   Overcast
12:55 PM 68.0 °F 42.8 °F 40% 29.94 in 10.0 mi Calm Calm - N/A   Scattered Clouds
1:15 PM 68.0 °F 41.0 °F 37% 29.94 in 9.0 mi Calm Calm - N/A Rain Light Rain
1:35 PM 68.0 °F 41.0 °F 37% 29.94 in 10.0 mi SSW 3.5 mph - N/A Rain Light Rain
1:55 PM 68.0 °F 41.0 °F 37% 29.94 in 10.0 mi WSW 6.9 mph - N/A Rain Light Rain
2:15 PM 66.2 °F 41.0 °F 40% 29.94 in 10.0 mi SW 8.1 mph - N/A Rain Light Rain
2:35 PM 64.4 °F 46.4 °F 52% 29.94 in 10.0 mi SW 4.6 mph - N/A Rain Light Rain
2:55 PM 62.6 °F 50.0 °F 63% 29.94 in 9.0 mi North 11.5 mph - 0.01 in Rain Light Rain
3:15 PM 62.6 °F 50.0 °F 63% 29.93 in 10.0 mi North 8.1 mph - N/A Rain Light Rain
3:35 PM 60.8 °F 50.0 °F 68% 29.93 in 10.0 mi NNE 6.9 mph - N/A Rain Light Rain
3:55 PM 60.8 °F 50.0 °F 68% 29.93 in 10.0 mi NNE 10.4 mph - N/A Rain Light Rain
4:15 PM 59.0 °F 51.8 °F 77% 29.93 in 10.0 mi NNE 15.0 mph 24.2 mph N/A Rain Light Rain
4:35 PM 57.2 °F 55.4 °F 94% 29.92 in 5.0 mi NNE 15.0 mph 24.2 mph 0.01 in Rain Light Rain
5:15 PM 55.4 °F 55.4 °F 100% 29.91 in 10.0 mi NE 23.0 mph 29.9 mph N/A Rain Light Rain
5:35 PM 55.4 °F 53.6 °F 94% 29.91 in 10.0 mi NNE 19.6 mph 27.6 mph N/A Rain Light Rain
5:55 PM 55.4 °F 53.6 °F 94% 29.91 in 9.0 mi NE 17.3 mph 26.5 mph N/A Rain Light Rain
6:15 PM 55.4 °F 53.6 °F 94% 29.91 in 9.0 mi NE 20.7 mph 27.6 mph N/A Rain Light Rain
6:35 PM 55.4 °F 55.4 °F 100% 29.90 in 5.0 mi NE 18.4 mph 25.3 mph 0.01 in Rain Light Rain
6:55 PM 53.6 °F 53.6 °F 100% 29.89 in 8.0 mi NE 20.7 mph 28.8 mph 0.01 in Rain Light Rain
7:15 PM 55.4 °F 55.4 °F 100% 29.89 in 10.0 mi NE 17.3 mph 24.2 mph N/A Rain Light Rain
7:35 PM 53.6 °F 53.6 °F 100% 29.89 in 10.0 mi NE 15.0 mph 21.9 mph N/A Rain Light Rain
7:55 PM 53.6 °F 53.6 °F 100% 29.89 in 10.0 mi NE 12.7 mph - N/A Rain Light Rain
8:15 PM 53.6 °F 53.6 °F 100% 29.89 in 10.0 mi NE 12.7 mph 19.6 mph N/A Rain Light Rain
8:35 PM 53.6 °F 53.6 °F 100% 29.90 in 10.0 mi NE 12.7 mph 23.0 mph N/A Rain Light Rain
8:55 PM 53.6 °F 53.6 °F 100% 29.90 in 10.0 mi NE 13.8 mph - N/A   Overcast
9:15 PM 53.6 °F 53.6 °F 100% 29.90 in 10.0 mi NE 11.5 mph 19.6 mph N/A   Overcast
9:35 PM 53.6 °F 53.6 °F 100% 29.90 in 10.0 mi ENE 11.5 mph 19.6 mph N/A   Overcast
9:55 PM 53.6 °F 53.6 °F 100% 29.90 in 10.0 mi ENE 11.5 mph 17.3 mph N/A   Overcast
10:15 PM 53.6 °F 53.6 °F 100% 29.89 in 10.0 mi ENE 12.7 mph 20.7 mph N/A   Mostly Cloudy
10:35 PM 53.6 °F 53.6 °F 100% 29.90 in 10.0 mi East 10.4 mph - N/A   Overcast
10:55 PM 53.6 °F 53.6 °F 100% 29.90 in 10.0 mi ENE 13.8 mph 19.6 mph N/A   Overcast
11:15 PM 53.6 °F 53.6 °F 100% 29.90 in 10.0 mi ENE 8.1 mph - N/A   Overcast
11:35 PM 53.6 °F 53.6 °F 100% 29.90 in 10.0 mi ENE 13.8 mph - N/A   Overcast
11:55 PM 53.6 °F 51.8 °F 94% 29.89 in 10.0 mi ENE 13.8 mph 19.6 mph N/A   Mostly Cloudy